Regional Weather Roundup
Issued by NWS

Home | Current Version | Previous Version | Text Only | Print | Product List | Glossary On
Versions: 1 2 3 4 5 6 7 8 9 10 11 12 13 14 15 16 17 18 19 20 21 22 23 24 25 26 27 28 29 30 31 32 33 34 35 36 37 38 39 40 41 42 43 44 45 46 47 48 49 50
000
ASUS45 KABQ 280110
RWRNM
NEW MEXICO REGIONAL WEATHER ROUNDUP
NATIONAL WEATHER SERVICE ALBUQUERQUE NM
700 PM MDT SAT AUG 27 2016

NOTE: "FAIR" MEANS FEW OR NO CLOUDS BELOW 12,000 FEET AGL WITH NO
       SIGNIFICANT WEATHER OR OBSTRUCTIONS TO VISION.

      THIS PRODUCT IS RELEASED AS TWO VERSIONS.  ONE VERSION NEAR
      THE TOP OF THE HOUR CONTAINING PRELIMINARY DATA FROM ALBUQUERQUE
      AND OTHER STATIONS.  A FINAL VERSION WITH ADDITIONAL DATA IS
      ISSUED ABOUT 10 MINUTES AFTER THE HOUR.

NMZ501-503-504-510>518-280200-
NORTHWEST PLATEAU/NORTHCENTRAL MOUNTAINS

CITY           SKY/WX    TMP DP  RH WIND       PRES   REMARKS
FARMINGTON     FAIR      64  53  67 E8        30.18F
SANTA FE       CLOUDY    66  47  50 SW9       30.25R
TAOS           FAIR      66  37  34 NW18G24   30.26R
ANGEL FIRE     FAIR      60  38  44 SW5       30.31S

$$
NMZ402-403-502-505>509-280200-
WESTCENTRAL MOUNTAINS/SOUTHWEST MOUNTAINS

CITY           SKY/WX    TMP DP  RH WIND       PRES   REMARKS
GALLUP         FAIR      66  48  52 SW5       30.23F
GRANTS         MOCLDY    67  43  41 NE5       30.25F
SILVER CITY    FAIR      69  54  58 NE16      30.14R

$$
NMZ407-409-411-412-280200-
SOUTHERN DESERTS

CITY           SKY/WX    TMP DP  RH WIND       PRES   REMARKS
DEMING         FAIR      80  53  39 CALM      30.05R
LAS CRUCES     FAIR      68  62  79 N8        30.08R
ALAMOGORDO     FAIR      81  55  41 NW7G17    30.04R
T OR C         FAIR      74  50  42 NW13G18   30.10F

$$
NMZ519>523-280200-
CENTRAL VALLEYS/CENTRAL HIGHLANDS

CITY           SKY/WX    TMP DP  RH WIND       PRES   REMARKS
ALBUQUERQUE    MOCLDY    67  51  56 N3        30.17F
DOUBLE EAGLE   RAIN      61  55  82 SW10      30.20F
MORIARTY ARPT  FAIR      65  48  52 N9G25     30.23R
CLINES CORNERS CLOUDY    58  51  78 N10       30.29R
BELEN          FAIR      65  51  60 NW9       30.17R
SOCORRO        FAIR      74  47  37 NE13      30.12R

$$
NMZ524>526-539-540-280200-
SOUTHCENTRAL MOUNTAINS

CITY           SKY/WX    TMP DP  RH WIND       PRES   REMARKS
RUIDOSO        NOT AVBL

$$
NMZ527>531-280200-
NORTHEAST HIGHLANDS/NORTHEAST PLAINS

CITY           SKY/WX    TMP DP  RH WIND       PRES   REMARKS
LAS VEGAS      MOCLDY    62  51  67 S14       30.20R
RATON          MOCLDY    68  48  48 E9        30.14S
CLAYTON        LGT RAIN  71  54  54 S16       30.08R

$$
NMZ532>537-280200-
EASTCENTRAL PLAINS

CITY           SKY/WX    TMP DP  RH WIND       PRES   REMARKS
TUCUMCARI      FAIR      84  48  28 SW9       29.99S
CANNON AFB     FAIR      79  56  45 SE10      30.05R
CLOVIS AIRPORT MOCLDY    75  61  60 SE13      30.06R

$$
NMZ028-029-538-280200-
SOUTHEAST PLAINS

CITY           SKY/WX    TMP DP  RH WIND       PRES   REMARKS
ROSWELL        FAIR      83  55  38 S8        29.99S
ARTESIA        FAIR      82  61  47 S6        30.00S
CARLSBAD       FAIR      82  61  48 S6        29.98R
HOBBS          FAIR      82  59  44 S7        30.03S


$$




USA.gov is the U.S. government's official web portal to all federal, state and local government web resources and services.